Stations météo

Publicité
Perigueux, France (7428): Température de l'air & dewpoint: 11.12.2017 22:00:00 - 17.12.2017 22:00:00 (CET)Perigueux, France (7428): Vitesse du vent & gusts: 11.12.2017 22:00:00 - 17.12.2017 22:00:00 (CET)Perigueux, France (7428): Direction du vent: 11.12.2017 22:00:00 - 17.12.2017 22:00:00 (CET)Perigueux, France (7428): reduced air pressure: 11.12.2017 22:00:00 - 17.12.2017 22:00:00 (CET)Perigueux, France (7428): visibility: 11.12.2017 22:00:00 - 17.12.2017 22:00:00 (CET)
Date & Time tt [°C] td [°C] ff [km/h] ff [knt] fx [km/h] fx [knt] dd ppp [hPa] vv [km]
17.12.2017 22:00:00 5,0 4,7 0 0 5 3 N 1032,1 1,3
17.12.2017 21:00:00 4,8 4,4 2 1 4 2 NW 1032,2 1,4
17.12.2017 20:00:00 5,2 4,8 0 0 2 1 N 1032,1 2,9
17.12.2017 19:00:00 5,3 4,9 0 0 5 3 N 1031,6 3,8
17.12.2017 18:00:00 5,5 5,1 0 0 4 2 N 1031,4 4,7
17.12.2017 17:00:00 5,4 4,8 0 0 8 4 N 1031,0 5
17.12.2017 16:00:00 5,4 4,8 5 3 9 5 ENE 1030,2 4,9
17.12.2017 15:00:00 5,5 4,9 5 3 11 6 W 1030,0 6
17.12.2017 14:00:00 5,4 4,7 5 3 13 7 WSW 1029,6 9
17.12.2017 13:00:00 4,9 4,2 5 3 11 6 WSW 1030,0 13
17.12.2017 12:00:00 4,0 3,4 5 3 16 9 W 1030,4 16
17.12.2017 11:00:00 3,3 3,3 4 2 15 8 WSW 1030,5 11
17.12.2017 10:00:00 0,6 0,6 0 0 5 3 N 1030,1 2,7
17.12.2017 09:00:00 0,1 0,1 0 0 4 2 N 1029,8 2,0
17.12.2017 08:00:00 -0,4 -0,4 0 0 4 2 N 1029,6 3,9
17.12.2017 07:00:00 -1,0 -1,0 0 0 2 1 N 1029,3 4,1
17.12.2017 06:00:00 -1,4 -1,4 0 0 2 1 N 1029,5 0,5
17.12.2017 05:00:00 -1,9 -1,9 0 0 2 1 N 1029,2 0,1
17.12.2017 04:00:00 -1,9 -1,9 0 0 2 1 N 1029,1 0,2
17.12.2017 03:00:00 -1,7 -1,7 0 0 0 0 N 1029,0 0,1
17.12.2017 02:00:00 -1,7 -1,8 0 0 4 2 N 1028,5 0,1
17.12.2017 01:00:00 -1,5 -1,6 0 0 2 1 N 1028,7 0,2
17.12.2017 00:00:00 -0,9 -1,0 0 0 2 1 N 1028,4 2,3
16.12.2017 23:00:00 -0,9 -1,0 0 0 4 2 N 1028,1 2,4
16.12.2017 22:00:00 -1,3 -1,6 0 0 5 3 N 1027,7 0,2
16.12.2017 21:00:00 -0,6 -0,9 0 0 4 2 N 1026,9 0,2
16.12.2017 20:00:00 0,2 -0,2 0 0 4 2 N 1026,0 0,9
16.12.2017 19:00:00 0,7 -0,2 2 1 8 4 W 1025,5 11
16.12.2017 18:00:00 2,4 1,5 8 4 9 5 WNW 1024,4 16
16.12.2017 17:00:00 5,2 1,9 9 5 21 11 W 1023,6 50
16.12.2017 16:00:00 6,8 2,9 9 5 18 10 NW 1022,7 40
16.12.2017 15:00:00 6,2 2,6 5 3 9 5 NNW 1022,1 50
16.12.2017 14:00:00 5,0 2,5 5 3 18 10 NNW 1022,0 40
16.12.2017 13:00:00 4,9 2,9 5 3 9 5 WNW 1021,6 19
16.12.2017 12:00:00 3,1 1,9 5 3 9 5 W 1021,6 19
16.12.2017 11:00:00 2,1 2,1 5 3 9 5 W 1021,1 14
16.12.2017 10:00:00 -0,1 -0,1 0 0 2 1 N 1020,1 4,2
16.12.2017 09:00:00 -1,0 -1,0 0 0 2 1 N 1019,2 2,3
16.12.2017 08:00:00 -2,1 -2,1 2 1 5 3 E 1018,5 0,2
16.12.2017 07:00:00 -1,7 -1,7 0 0 5 3 N 1017,3 0,3
16.12.2017 06:00:00 -2,0 -2,1 4 2 8 4 WNW 1016,7 1,8
16.12.2017 05:00:00 -1,6 -1,7 2 1 5 3 W 1016,1 0,7
16.12.2017 04:00:00 -0,9 -1,0 0 0 5 3 N 1015,5 0,3
16.12.2017 03:00:00 -0,6 -0,9 4 2 8 4 SSW 1014,6 5
16.12.2017 02:00:00 0,7 0,4 4 2 9 5 W 1013,7 9
16.12.2017 01:00:00 0,5 -0,1 4 2 5 3 ESE 1013,0 2,8
16.12.2017 00:00:00 2,3 0,7 4 2 9 5 NW 1012,5 50
15.12.2017 23:00:00 3,3 1,5 4 2 15 8 WNW 1011,4 45
15.12.2017 22:00:00 4,6 2,8 8 4 16 9 W 1010,3 19
15.12.2017 21:00:00 5,6 4,4 11 6 18 10 W 1009,4 17
15.12.2017 20:00:00 5,7 5,0 11 6 16 9 W 1008,3 19
15.12.2017 19:00:00 5,0 4,4 9 5 13 7 WNW 1007,3 40
15.12.2017 18:00:00 4,1 3,2 0 0 13 7 N 1006,3 18
15.12.2017 17:00:00 5,1 3,9 8 4 26 14 W 1005,9 55
15.12.2017 16:00:00 5,9 3,9 13 7 50 27 WNW 1005,2 60
15.12.2017 15:00:00 7,3 5,4 16 9 34 18 WSW 1002,5 13
15.12.2017 14:00:00 7,2 5,2 5 3 28 15 SSW 1004,5 19
15.12.2017 13:00:00 7,7 4,3 16 9 29 16 WSW 1005,8 60
15.12.2017 12:00:00 7,9 5,0 13 7 26 14 WSW 1006,7 50
15.12.2017 11:00:00 6,6 4,4 8 4 15 8 SW 1007,1 55
15.12.2017 10:00:00 4,9 4,5 5 3 11 6 WSW 1007,3 19
15.12.2017 09:00:00 3,1 2,5 4 2 13 7 SW 1007,1 19
15.12.2017 08:00:00 3,5 2,9 8 4 11 6 SW 1006,6 40
15.12.2017 07:00:00 4,9 4,0 8 4 13 7 WSW 1006,2 50
15.12.2017 06:00:00 4,3 3,4 5 3 9 5 SSW 1005,6 55
15.12.2017 05:00:00 5,6 4,7 4 2 9 5 S 1005,8 19
15.12.2017 04:00:00 6,4 5,0 5 3 15 8 W 1005,8 55
15.12.2017 03:00:00 6,7 5,2 9 5 18 10 W 1006,0 60
15.12.2017 02:00:00 6,8 4,8 13 7 28 15 W 1006,0 60
15.12.2017 01:00:00 6,7 4,5 15 8 42 23 W 1006,7 7
15.12.2017 00:00:00 6,2 4,8 16 9 39 21 NNW 1006,5 2,9
14.12.2017 23:00:00 8,4 6,9 18 10 46 25 W 1005,8 10
14.12.2017 22:00:00 9,5 6,2 16 9 68 37 W 1005,4 40
14.12.2017 21:00:00 10,0 7,8 18 10 39 21 W 1005,9 9
14.12.2017 20:00:00 9,9 7,5 18 10 55 30 WSW 1006,1 19
14.12.2017 19:00:00 9,9 8,2 13 7 39 21 WSW 1006,2 6
14.12.2017 18:00:00 10,4 8,0 16 9 37 20 WSW 1006,7 18
14.12.2017 17:00:00 10,5 8,1 8 4 35 19 WSW 1007,0 8
14.12.2017 16:00:00 10,7 9,0 15 8 29 16 W 1007,8 3,0
14.12.2017 15:00:00 11,0 8,9 15 8 42 23 WSW 1008,5 14
14.12.2017 14:00:00 11,3 9,0 18 10 34 18 W 1009,6 17
14.12.2017 13:00:00 11,1 8,8 15 8 35 19 W 1010,5 18
14.12.2017 12:00:00 10,9 9,0 16 9 35 19 WSW 1011,5 8
14.12.2017 11:00:00 10,3 9,1 9 5 28 15 W 1012,4 7
14.12.2017 10:00:00 10,0 8,6 5 3 21 11 W 1012,6 4,9
14.12.2017 09:00:00 9,8 8,7 8 4 26 14 SW 1012,9 6
14.12.2017 08:00:00 10,1 8,5 11 6 22 12 W 1013,1 6
14.12.2017 07:00:00 10,1 7,9 9 5 24 13 SW 1013,2 12
14.12.2017 06:00:00 10,3 8,2 9 5 22 12 W 1013,0 13
14.12.2017 05:00:00 10,5 8,6 11 6 29 16 WSW 1013,0 13
14.12.2017 04:00:00 10,9 8,8 11 6 22 12 WSW 1013,3 14
14.12.2017 03:00:00 11,0 8,9 11 6 21 11 W 1013,3 16
14.12.2017 02:00:00 10,9 8,8 13 7 34 18 W 1013,2 19
14.12.2017 01:00:00 11,1 8,5 11 6 31 17 W 1013,2 18
14.12.2017 00:00:00 11,3 9,0 18 10 29 16 W 1012,9 19
13.12.2017 23:00:00 11,5 9,6 13 7 24 13 WSW 1012,5 18
13.12.2017 22:00:00 11,1 9,8 13 7 26 14 W 1012,1 19
13.12.2017 21:00:00 10,4 9,6 11 6 39 21 W 1012,1 3,9
13.12.2017 20:00:00 10,1 8,9 16 9 37 20 SW 1011,3 3,3
13.12.2017 19:00:00 9,6 8,5 13 7 37 20 SW 1011,6 5
13.12.2017 18:00:00 9,2 8,1 13 7 34 18 SSW 1012,1 4,4
13.12.2017 17:00:00 8,8 7,7 13 7 28 15 S 1012,8 10
13.12.2017 16:00:00 8,0 7,1 9 5 21 11 SSW 1013,7 17
13.12.2017 15:00:00 7,4 6,3 8 4 18 10 SSW 1014,8 17
13.12.2017 14:00:00 6,8 5,3 4 2 11 6 W 1015,9 19
13.12.2017 13:00:00 6,1 4,6 2 1 13 7 SSW 1016,8 45
13.12.2017 12:00:00 5,0 3,8 5 3 13 7 SSW 1018,0 26
13.12.2017 11:00:00 4,5 2,8 2 1 13 7 SSE 1018,8 4,3
13.12.2017 10:00:00 4,1 2,1 5 3 18 10 SE 1018,9 35
13.12.2017 09:00:00 3,3 1,7 5 3 15 8 SSW 1019,3 19
13.12.2017 08:00:00 2,7 2,4 4 2 13 7 NNW 1019,4 19
13.12.2017 07:00:00 1,9 1,9 4 2 8 4 NE 1019,8 12
13.12.2017 06:00:00 1,6 1,6 2 1 8 4 N 1019,8 11
13.12.2017 05:00:00 0,5 0,5 2 1 5 3 E 1020,6 4,0
13.12.2017 04:00:00 0,5 0,5 0 0 5 3 N 1021,4 1,9
13.12.2017 03:00:00 0,9 0,9 4 2 5 3 ESE 1021,3 2,9
13.12.2017 02:00:00 0,7 0,6 2 1 5 3 ESE 1021,2 1,4
13.12.2017 01:00:00 0,8 0,5 0 0 4 2 N 1021,6 0,9
13.12.2017 00:00:00 1,5 1,1 2 1 4 2 E 1021,7 1,6
12.12.2017 23:00:00 2,6 2,0 0 0 5 3 N 1021,4 5
12.12.2017 22:00:00 3,3 2,7 2 1 5 3 ESE 1021,1 5
12.12.2017 21:00:00 3,3 2,6 0 0 5 3 N 1021,0 10
12.12.2017 20:00:00 2,0 1,4 0 0 4 2 N 1020,2 12
12.12.2017 19:00:00 1,7 1,0 2 1 4 2 E 1020,1 16
12.12.2017 18:00:00 2,8 0,7 0 0 8 4 N 1019,5 55
12.12.2017 17:00:00 4,6 1,1 0 0 8 4 N 1018,9 60
12.12.2017 16:00:00 9,0 0,2 2 1 11 6 SW 1017,9 60
12.12.2017 15:00:00 7,6 0,6 8 4 15 8 W 1017,3 55
12.12.2017 14:00:00 7,1 2,0 9 5 16 9 W 1017,4 55
12.12.2017 13:00:00 6,8 3,2 0 0 8 4 N 1016,9 19
12.12.2017 12:00:00 4,7 2,6 4 2 5 3 ESE 1017,2 12
12.12.2017 11:00:00 3,8 2,2 0 0 9 5 N 1016,6 18
12.12.2017 10:00:00 2,8 2,2 2 1 8 4 NW 1015,3 19
12.12.2017 09:00:00 1,8 1,7 5 3 8 4 W 1014,4 7
12.12.2017 08:00:00 1,0 0,9 4 2 5 3 ESE 1013,1 3,7
12.12.2017 07:00:00 0,7 0,6 0 0 5 3 N 1012,2 3,7
12.12.2017 06:00:00 0,6 0,5 0 0 8 4 N 1010,3 4,9
12.12.2017 05:00:00 1,3 1,0 4 2 5 3 W 1008,7 0,7
12.12.2017 04:00:00 3,0 2,4 2 1 5 3 WSW 1007,1 18
12.12.2017 03:00:00 3,8 2,9 4 2 5 3 W 1005,8 50
12.12.2017 02:00:00 4,7 3,0 5 3 11 6 NW 1004,6 60
12.12.2017 01:00:00 5,2 3,4 5 3 15 8 NW 1003,6 19
12.12.2017 00:00:00 5,7 3,9 8 4 16 9 NW 1001,9 19
11.12.2017 23:00:00 6,5 5,9 8 4 9 5 W 999,8 6
11.12.2017 22:00:00 6,7 5,6 5 3 26 14 W 998,2 19

tt = Température de l'air
td = dewpoint
ff = Vitesse du vent
fx = gusts
dd = Direction du vent
ppp = reduced air pressure
vv = visibility

stations d'obs. à proximité